Simultaneous Nadir Overpasses (SNOs) Predictions

Prediction of SNOs between AQUA and NOAA-19 Satellite Orbit:

Table of predicted SNOs for the next 14.0 days since TLE Epoch: 1/28/2012
Index Date Time (AQUA) AQUA Lat,Lon NOAA-19 Lat,Lon Distance(km) Time Diff (sec)
1 01/29/2012 18:55:29 55.05, 111.80 55.05, 111.79 0.82 27
2 01/31/2012 23:39:16 57.49, 42.02 57.49, 42.02 0.08 47
3 02/03/2012 03:36:49 -49.02, 159.13 -49.02, 159.12 0.51 21
4 02/05/2012 08:20:51 -51.09, 88.86 -51.09, 88.86 0.07 9
5 02/07/2012 13:05:04 -52.75, 18.44 -52.76, 18.46 1.27 1




NCC Satellite Simultaneous Nadir Overpasses (SNOs) Prediction Service
